Location: Kazanice
(53.5528°N, 19.7258°E)
Time: 15:30:35
(UTC+01:00)

ISS - Pass Details

Date: 29 January 2019
Orbit: 403 x 411 km, 51.6° (Epoch: 16 February)

Event Time Altitude Azimuth Distance (km) Brightness Sun altitude
Rises 18:17:26 0° 254° (WSW) 2,334 1.7 -17.7°
Reaches altitude 10° 18:19:31 10° 250° (WSW) 1,475 0.2 -18.0°
Maximum altitude 18:22:47 57° 171° (S) 489 -3.5 -18.5°
Enters shadow 18:23:06 54° 143° (SE) 508 -3.6 -18.5°
